Station KWHH1 - 1617433 - Kawaihae, HI Image indicating link to RSS feed of recent meteorological observations for station KWHH1


Conditions at KWHH1 as of
(10:54 am HAST)
2054 GMT on 07/13/2024:
     

Click on the graph icon in the table below to see a time series plot of the last five days of that observation.

5-day plot - Wind Direction Wind Direction (WDIR):WNW ( 300 deg true )
5-day plot - Wind Speed Wind Speed (WSPD): 15.0 kts
5-day plot - Wind Gust Wind Gust (GST): 17.1 kts
5-day plot - Atmospheric Pressure Atmospheric Pressure (PRES):29.99 in
5-day plot - Air Temperature Air Temperature (ATMP): 83.1 °F
5-day plot - Water Temperature Water Temperature (WTMP): 80.1 °F
5-day plot - Wind Speed at 10 Meters Wind Speed at 10 meters (WSPD10M): 15.5 kts
5-day plot - Wind Speed at 20 Meters Wind Speed at 20 meters (WSPD20M): 15.5 kts
5-day plot -  Wind Speed, Wind Gust and Atmospheric Pressure Combined plot of Wind Speed, Gust, and Air Pressure
NOS Water Level Observation Network Water Level
Previous observations
TIME
(HAST)
5-day plot - Wind Direction
WDIR
 
5-day plot - Wind Speed
WSPD
kts
5-day plot - Wind Gust
GST
kts
5-day plot - Wave Height
WVHT
ft
5-day plot - Dominant Wave Period
DPD
sec
5-day plot - Average Wave Period
APD
sec
5-day plot - Mean Wave Direction
MWD
 
5-day plot - Atmospheric Pressure
PRES
in
5-day plot - Pressure Tendency
PTDY
in
5-day plot - Air Temperature
ATMP
°F
5-day plot - Water Temperature
WTMP
°F
5-day plot - Dew Point
DEWP
°F
5-day plot - Salinity
SAL
psu
5-day plot - Visibility
VIS
nmi
5-day plot - Tide (above MLLW)
TIDE
ft
2024-07-13 10:48 amWNW 11.1 18.1----29.98- 83.3 80.1----
2024-07-13 10:42 am NW 15.0 19.0----29.99- 83.5 80.1----
2024-07-13 10:36 am NW 13.0 15.9----29.99- 82.9 80.1----
2024-07-13 10:30 am NW 13.0 15.9----29.99-- 80.1----
2024-07-13 10:24 am NW 12.0 15.0----29.98-- 80.1----
2024-07-13 10:18 am NW 8.9 11.1----29.99- 82.6 80.1----
2024-07-13 10:12 am NW 11.1 13.0----29.99- 82.8 80.1----
2024-07-13 10:06 amWNW 9.9 13.0----29.99- 82.8 80.1----
2024-07-13 10:00 am NW 12.0 13.0----29.98+0.00- 80.1----
2024-07-13 09:54 am NW 8.9 13.0----29.99-- 80.1----
2024-07-13 09:48 am NW 13.0 14.0----29.99-- 80.1----
2024-07-13 09:42 amWNW 12.0 14.0----29.99-- 80.1----
2024-07-13 09:36 amWNW 5.1 9.9----30.00-- 80.1----
2024-07-13 09:30 am S 4.1 21.0----30.00- 84.9 80.1----
2024-07-13 09:24 am SE 15.9 22.0----29.99- 84.6 79.9----
2024-07-13 09:18 am E 7.0 24.1----30.00- 84.6 79.9----
2024-07-13 09:12 am E 7.0 20.0----30.00- 84.7 79.9----
2024-07-13 09:06 am E 11.1 20.0----29.99- 83.8 79.9----
2024-07-13 09:00 am E 8.9 22.0----29.99+0.01- 79.9----
2024-07-13 08:54 amESE 17.1 26.0----29.99-- 79.9----
2024-07-13 08:48 am E 13.0 21.0----29.99- 84.2 79.9----
2024-07-13 08:42 amESE 12.0 22.9----29.99- 82.9 79.9----
2024-07-13 08:36 am E 9.9 19.0----29.99- 83.5 79.9----
2024-07-13 08:30 amNNE 7.0 17.1----30.00- 83.7 79.9----
2024-07-13 08:24 am E 8.9 24.1----29.99- 83.8 79.9----
2024-07-13 08:18 amENE 6.0 17.1----29.99- 83.3 79.9----
2024-07-13 08:12 am NE 6.0 11.1----30.00- 84.2 79.9----
2024-07-13 08:06 amNNE 2.9 5.1----30.00- 82.8 79.9----
2024-07-13 08:00 am NE 1.9 5.1----30.00+0.03 83.8 79.9----
2024-07-13 07:54 am E 6.0 8.9----30.00- 82.8 79.9----
2024-07-13 07:48 am E 5.1 8.0----30.00-------
2024-07-13 07:42 amENE 6.0 8.9----30.00-------
2024-07-13 07:36 amNNE 5.1 7.0----29.99-------
2024-07-13 07:30 am E 8.9 13.0----29.98- 82.2 79.9----
2024-07-13 07:24 amENE 5.1 8.0----29.99- 82.0 80.1----
2024-07-13 07:18 amENE 7.0 11.1----29.99- 81.7 80.1----
2024-07-13 07:12 amENE 6.0 12.0----29.99- 81.5 80.1----
2024-07-13 07:06 am E 8.9 14.0----30.00- 81.5 80.1----
2024-07-13 07:00 am-------29.99+0.03- 80.1----
2024-07-13 06:54 am-------29.99-- 80.1----
2024-07-13 06:48 am E 9.9 15.9----29.99- 80.6 80.1----
2024-07-13 06:42 am E 8.9 12.0----29.98- 80.2 80.1----
2024-07-13 06:36 am E 8.9 17.1----29.98- 80.2 80.1----
2024-07-13 06:30 am E 8.0 18.1------ 79.9 80.1----
2024-07-13 06:24 am E 8.9 15.9------ 79.7 80.1----
2024-07-13 06:18 am E 8.9 13.0----29.98-------
2024-07-13 06:12 am E 8.0 19.0----29.97-------
2024-07-13 06:06 amESE 11.1 20.0----29.98-------
2024-07-13 06:00 amESE 13.0 21.0----29.98+0.01 78.6 80.1----
2024-07-13 05:54 amESE 14.0 26.0----29.98- 78.6 80.2----
2024-07-13 05:48 am E 13.0 27.0----29.97- 78.6 80.2----
2024-07-13 05:42 amESE 12.0 21.0----29.97- 78.6 80.2----
2024-07-13 05:36 am E 12.0 21.0----29.97- 78.6 80.2----
2024-07-13 05:30 am E 9.9 21.0----29.97- 79.3 80.2----
2024-07-13 05:24 am E 13.0 22.9----29.96- 79.2 80.2----
2024-07-13 05:18 am E 8.0 13.0----29.96- 79.3 80.2----
2024-07-13 05:12 amENE 2.9 12.0----29.97- 79.3 80.2----
2024-07-13 05:06 am E 2.9 6.0----29.97- 79.0 80.2----
2024-07-13 05:00 am NE 4.1 8.9----29.97+0.00 79.0 80.2----
2024-07-13 04:54 am NE 6.0 11.1----29.96- 79.7 80.2----
2024-07-13 04:48 am NE 6.0 15.9----29.96- 80.2 80.2----
2024-07-13 04:42 am NE 6.0 11.1----29.96- 79.9 80.2----
2024-07-13 04:36 am E 7.0 20.0----29.96- 79.9 80.2----
2024-07-13 04:30 am E 8.9 11.1----29.96- 80.1 80.2----
2024-07-13 04:24 amENE 6.0 13.0----29.96- 79.7 80.2----
2024-07-13 04:18 am E 9.9 13.0----29.96- 79.7 80.2----
2024-07-13 04:12 amENE 1.9 5.1----29.96- 79.2 80.2----
2024-07-13 04:06 am NE 5.1 7.0----29.96- 79.5 80.2----
2024-07-13 04:00 am NE 4.1 8.9----29.96-0.02 79.7 80.2----
2024-07-13 03:54 am N 2.9 6.0----29.96- 80.1 80.2----
2024-07-13 03:48 am- 0.0 5.1----29.96- 80.1 80.2----
2024-07-13 03:42 am NW 2.9 4.1----29.96- 80.2 80.2----
2024-07-13 03:36 am N 1.0 4.1----29.97- 79.3 80.2----
2024-07-13 03:30 am N 2.9 4.1----29.97- 79.2 80.2----
2024-07-13 03:24 amENE 1.9 2.9----29.97- 79.9 80.2----
2024-07-13 03:18 amSSE 1.9 7.0----29.97- 79.7 80.2----
2024-07-13 03:12 amENE 4.1 7.0----29.97- 79.3 80.2----
2024-07-13 03:06 am E 2.9 4.1----29.97- 79.2 80.2----
2024-07-13 03:00 am NE 4.1 5.1----29.97-0.03 78.8 80.2----
2024-07-13 02:54 amNNE 2.9 5.1----29.96- 79.0 80.4----
2024-07-13 02:48 amENE 2.9 5.1----29.96- 79.5 80.4----
2024-07-13 02:42 am E 2.9 5.1----29.97- 79.3 80.4----
2024-07-13 02:36 am E 4.1 6.0----29.97- 79.0 80.4----
2024-07-13 02:30 am E 2.9 5.1----29.97- 79.5 80.4----
2024-07-13 02:24 amESE 2.9 4.1----29.98- 79.7 80.4----
2024-07-13 02:18 am SE 1.9 4.1----29.97- 79.5 80.4----
2024-07-13 02:12 am SW 4.1 5.1----29.97- 79.7 80.4----
2024-07-13 02:06 amWSW 4.1 5.1----29.97- 79.5 80.4----
2024-07-13 02:00 amWSW 2.9 5.1----29.97-0.02 79.7 80.4----
2024-07-13 01:54 amWSW 5.1 5.1----29.97- 79.7 80.4----
2024-07-13 01:48 amWSW 2.9 4.1----29.97-- 80.4----
2024-07-13 01:42 amNNW 1.0 1.0----29.97-- 80.4----
2024-07-13 01:36 am- 0.0 1.9----29.98-- 80.4----
2024-07-13 01:30 amNNE 1.0 1.9----29.98-- 80.4----
2024-07-13 01:24 amWNW 1.9 4.1----29.98-- 80.4----
2024-07-13 01:18 am N 1.9 2.9----29.98- 79.5 80.4----
2024-07-13 01:12 amNNE 1.9 2.9----29.98- 79.7 80.4----
2024-07-13 01:06 am NW 2.9 4.1----29.98- 80.2 80.4----
2024-07-13 01:00 amWNW 2.9 4.1----29.98- 80.1 80.4----
2024-07-13 12:54 amWSW 2.9 4.1----29.98- 80.1 80.4----
2024-07-13 12:48 am SW 1.9 5.1----29.98- 80.1 80.4----
2024-07-13 12:42 amWSW 2.9 4.1----29.98- 80.1 80.4----
2024-07-13 12:36 amWSW 1.9 4.1----29.98- 80.2 80.4----
2024-07-13 12:30 amWSW 2.9 4.1----29.98- 80.2 80.4----
2024-07-13 12:24 am W 1.9 5.1----29.99- 80.4 80.4----
2024-07-13 12:18 am W 5.1 5.1----29.99- 80.4 80.4----
2024-07-13 12:12 am W 5.1 6.0----29.99- 80.4 80.4----
2024-07-13 12:06 am W 2.9 5.1----29.99- 80.4 80.4----
2024-07-13 12:00 amWNW 1.0 1.9----29.99+0.00- 80.4----
2024-07-12 11:54 pm W 1.0 2.9----30.00-- 80.4----
2024-07-12 11:48 pm W 4.1 5.1----30.00-- 80.4----
2024-07-12 11:42 pm W 4.1 5.1----30.00-- 80.4----
2024-07-12 11:36 pmNNW 1.9 5.1----30.00-- 80.4----
2024-07-12 11:30 pm- 0.0 1.0----30.00- 80.8 80.4----
2024-07-12 11:24 pm S 2.9 4.1----30.00- 80.4 80.4----
2024-07-12 11:18 pm S 1.9 4.1----30.00- 80.2 80.4----
2024-07-12 11:12 pm SW 2.9 5.1----30.00- 80.4 80.4----
2024-07-12 11:06 pmSSW 5.1 7.0----30.00- 80.4 80.4----
2024-07-12 11:00 pmSSW 2.9 5.1----30.00+0.00 80.4 80.4----
2024-07-12 10:54 pm S 1.0 2.9----30.00- 80.4 80.4----
2024-07-12 10:48 pm SW 2.9 4.1----29.99- 80.6 80.4----
2024-07-12 10:42 pm- 0.0 1.9----30.00- 81.0 80.4----
2024-07-12 10:36 pmNNE 1.0 2.9----30.00- 80.8 80.4----
2024-07-12 10:30 pm NW 1.9 2.9----30.00- 80.8 80.4----
2024-07-12 10:24 pmNNE 1.0 1.9----30.00- 80.8 80.4----
2024-07-12 10:18 pm- 0.0 1.9----30.00- 80.6 80.4----
2024-07-12 10:12 pm W 1.0 1.9----30.00- 80.2 80.4----
2024-07-12 10:06 pm W 1.0 2.9----30.01- 80.2 80.4----
2024-07-12 10:00 pm W 1.0 1.9------ 80.2 80.4----
2024-07-12 09:54 pmWNW 1.9 4.1------ 80.2 80.4----
2024-07-12 09:48 pm NE 1.0 1.9----30.00- 81.0 80.4----
2024-07-12 09:42 pmENE 1.0 1.9----30.00- 81.0 80.4----
2024-07-12 09:36 pmSSE 1.0 1.9----30.00- 80.8 80.4----
2024-07-12 09:30 pm SE 2.9 4.1----30.00- 80.6 80.4----
2024-07-12 09:24 pmSSE 4.1 4.1----29.99- 80.8 80.4----
2024-07-12 09:18 pm E 1.9 2.9----29.99- 81.1 80.4----
2024-07-12 09:12 pm E 1.9 2.9----29.99- 81.0 80.4----
2024-07-12 09:06 pmSSE 1.9 2.9----29.99- 80.8 80.4----
2024-07-12 09:00 pm S 1.9 2.9----29.99+0.04 80.6 80.4----
2024-07-12 08:54 pmSSE 1.9 4.1----29.99- 81.0 80.4----
2024-07-12 08:48 pm S 2.9 4.1----29.99- 80.6 80.4----
2024-07-12 08:42 pm S 1.9 2.9----29.99- 80.6 80.4----
2024-07-12 08:36 pm S 1.9 4.1----29.99- 81.0 80.4----
2024-07-12 08:30 pmSSE 2.9 2.9----29.99- 80.6 80.4----
2024-07-12 08:24 pm S 1.9 2.9----29.99- 80.6 80.4----
2024-07-12 08:18 pm S 1.9 4.1----30.00- 80.8 80.6----
2024-07-12 08:12 pmSSW 2.9 4.1----29.99- 80.6 80.6----
2024-07-12 08:06 pm S 1.9 4.1----29.99- 80.8 80.6----
2024-07-12 08:00 pm S 2.9 4.1----29.99+0.05 80.8 80.6----
2024-07-12 07:54 pmSSW 1.9 2.9----29.99- 81.1 80.6----
2024-07-12 07:48 pm S 1.9 1.9----29.99- 80.8 80.6----
2024-07-12 07:42 pmSSE 1.0 1.9----29.99- 81.0 80.6----
2024-07-12 07:36 pm S 1.0 2.9----29.98- 80.6 80.6----
2024-07-12 07:30 pm- 0.0 1.0----29.98- 80.4 80.6----
2024-07-12 07:24 pm- 0.0 2.9----29.98- 80.6 80.6----
2024-07-12 07:18 pm SW 1.0 4.1----29.98- 80.6 80.6----
2024-07-12 07:12 pm- 0.0 1.9----29.98- 80.4 80.6----
2024-07-12 07:06 pm W 1.9 6.0----29.98- 80.1 80.8----
2024-07-12 07:00 pmWSW 4.1 5.1----29.98+0.03 80.4 80.8----
2024-07-12 06:54 pm SW 5.1 7.0----29.97- 80.4 80.8----
2024-07-12 06:48 pmWSW 6.0 8.0----29.97- 80.4 81.0----
2024-07-12 06:42 pmWSW 7.0 8.0----29.97- 80.4 80.8----
2024-07-12 06:36 pmWSW 7.0 8.0----29.97- 80.4 81.0----
2024-07-12 06:30 pmWSW 7.0 8.0----29.96- 80.6 81.0----
2024-07-12 06:24 pmWSW 8.0 8.0----29.96- 80.6 80.8----
2024-07-12 06:18 pmWSW 7.0 8.0----29.96- 80.8 81.0----
2024-07-12 06:12 pmWSW 7.0 8.0----29.96- 80.8 81.0----
2024-07-12 06:06 pmWSW 6.0 8.0----29.96- 80.8 81.0----
2024-07-12 06:00 pmWSW 7.0 8.9----29.96+0.01 80.8 81.0----
2024-07-12 05:54 pmWSW 7.0 8.0----29.96- 80.8 81.0----
2024-07-12 05:48 pm SW 6.0 8.9----29.95- 81.1 80.8----
2024-07-12 05:42 pmWSW 6.0 7.0----29.95- 80.8 80.8----
2024-07-12 05:36 pmWSW 5.1 6.0----29.95- 80.6 80.8----
2024-07-12 05:30 pmWSW 5.1 6.0----29.95- 80.8 81.0----
2024-07-12 05:24 pmWSW 6.0 7.0----29.95- 80.8 81.0----
2024-07-12 05:18 pm SW 5.1 8.0----29.95- 81.3 81.1----
2024-07-12 05:12 pmWSW 5.1 7.0----29.95- 81.3 81.1----
2024-07-12 05:06 pmWSW 6.0 7.0----29.95- 81.1 81.1----
2024-07-12 05:00 pmWSW 6.0 8.0----29.95-0.02 80.8 81.0----
2024-07-12 04:54 pmWSW 6.0 7.0----29.94- 81.0 81.0----
2024-07-12 04:48 pmWSW 7.0 8.0----29.94- 80.6 81.1----
2024-07-12 04:42 pmWSW 7.0 8.0----29.94- 80.4 81.1----
2024-07-12 04:36 pmWSW 7.0 8.0----29.94- 80.4 81.1----
2024-07-12 04:30 pm W 7.0 8.0----29.94- 80.4 81.3----
2024-07-12 04:24 pmWSW 7.0 8.9----29.94- 80.2 81.1----
2024-07-12 04:18 pmWSW 8.0 8.9----29.94- 80.2 81.0----
2024-07-12 04:12 pmWSW 8.0 8.0----29.94- 80.2 81.0----
2024-07-12 04:06 pmWSW 7.0 8.0----29.94- 80.2 81.0----
2024-07-12 04:00 pmWSW 6.0 7.0----29.94-0.04 80.4 80.8----
2024-07-12 03:54 pm W 6.0 7.0----29.95- 80.6 81.0----
2024-07-12 03:48 pmWSW 6.0 7.0----29.95- 80.4 81.0----
2024-07-12 03:42 pmWSW 6.0 7.0----29.95- 80.6 81.0----
2024-07-12 03:36 pm W 7.0 8.0----29.95- 80.4 81.1----
2024-07-12 03:30 pm W 7.0 8.9----29.95- 80.4 81.0----
2024-07-12 03:24 pmWSW 7.0 9.9----29.95- 80.2 81.1----
2024-07-12 03:18 pm W 7.0 8.9----29.95- 80.2 81.1----
2024-07-12 03:12 pm W 8.0 8.9----29.95- 80.6 81.1----
2024-07-12 03:06 pm W 7.0 8.9----29.95- 80.2 81.1----
2024-07-12 03:00 pm W 7.0 8.9----29.95-0.05 80.2 81.3----
2024-07-12 02:54 pm W 8.0 9.9----29.95- 80.2 81.3----
2024-07-12 02:48 pm W 8.9 9.9----29.95- 80.1 81.1----
2024-07-12 02:42 pm W 8.9 11.1----29.95- 80.1 81.1----
2024-07-12 02:36 pm W 8.9 9.9----29.95- 80.1 81.0----
2024-07-12 02:30 pm W 8.0 9.9----29.96- 79.9 81.1----
2024-07-12 02:24 pm W 8.9 11.1----29.96- 80.1 81.0----
2024-07-12 02:18 pm W 8.0 9.9----29.96- 79.9 81.0----
2024-07-12 02:12 pm W 8.9 9.9----29.96- 79.9 81.0----
2024-07-12 02:06 pm W 8.0 9.9----29.96- 79.9 81.0----
2024-07-12 02:00 pm W 8.9 11.1----29.97-0.04 79.7 81.3----
2024-07-12 01:54 pm W 9.9 11.1----29.97- 79.9 81.3----
2024-07-12 01:48 pm W 8.9 11.1----29.97- 79.9 81.1----
2024-07-12 01:42 pm W 8.9 12.0----29.98- 79.5 81.3----
2024-07-12 01:36 pm W 11.1 12.0----29.98- 79.5 81.3----
2024-07-12 01:30 pm W 11.1 12.0----29.98- 79.5 81.3----
2024-07-12 01:24 pm W 9.9 12.0----29.98- 79.7 81.3----
2024-07-12 01:00 pm W 11.1 12.0----29.99-0.02 80.1 81.1----
2024-07-12 12:54 pmWSW 9.9 12.0----29.99- 80.1 81.1----
2024-07-12 12:48 pmWSW 11.1 12.0----29.99-- 81.1----
2024-07-12 12:42 pmWSW 9.9 12.0----29.99-- 81.0----
2024-07-12 12:36 pmWSW 12.0 13.0----29.99-- 81.0----
2024-07-12 12:30 pmWSW 9.9 13.0----29.99- 80.2 81.0----
2024-07-12 12:24 pmWSW 11.1 12.0----29.99- 80.1 80.8----
2024-07-12 12:18 pmWSW 11.1 12.0----29.99-- 80.8----
2024-07-12 12:12 pmWSW 12.0 13.0----29.99-- 80.8----
2024-07-12 12:06 pmWSW 9.9 12.0----29.99-- 80.6----
2024-07-12 12:00 pm W 9.9 12.0----29.99-0.02 80.1 80.4----
2024-07-12 11:54 am W 11.1 12.0----29.99- 80.4 80.2----
2024-07-12 11:48 am W 11.1 13.0----29.99- 80.2 80.2----
2024-07-12 11:42 am W 8.9 12.0----30.00- 80.4 80.1----
2024-07-12 11:36 am W 9.9 13.0----30.00- 80.4 80.1----
2024-07-12 11:30 am W 11.1 12.0----30.00- 80.2 80.1----
2024-07-12 11:24 am W 11.1 13.0----30.00- 80.6 79.9----
2024-07-12 11:18 am W 11.1 13.0----30.00- 80.6 79.7----
2024-07-12 11:12 am W 7.0 8.9----30.00- 81.1 79.7----
2024-07-12 11:06 am W 7.0 8.0----30.00- 81.1 79.9----
2024-07-12 11:00 am W 6.0 8.0----30.00-0.01 81.0 79.9----
2024-07-12 10:54 am W 6.0 7.0----30.01- 81.1 79.9----